Year,Month,Day,Hour,Minute,Value (Times are PST for temperature in C)
2017,11,13,00,00,7.60
2017,11,13,00,01,7.60
2017,11,13,00,02,7.60
2017,11,13,00,03,7.50
2017,11,13,00,04,7.50
2017,11,13,00,05,7.50
2017,11,13,00,06,7.50
2017,11,13,00,07,7.50
2017,11,13,00,08,7.50
2017,11,13,00,09,7.50
2017,11,13,00,10,7.50
2017,11,13,00,11,7.50
2017,11,13,00,12,7.50
2017,11,13,00,13,7.50
2017,11,13,00,14,7.50
2017,11,13,00,15,7.50
2017,11,13,00,16,7.50
2017,11,13,00,17,7.50
2017,11,13,00,18,7.50
2017,11,13,00,19,7.50
2017,11,13,00,20,7.50
2017,11,13,00,21,7.50
2017,11,13,00,22,7.40
2017,11,13,00,23,7.50
2017,11,13,00,24,7.40
2017,11,13,00,25,7.50
2017,11,13,00,26,7.50
2017,11,13,00,27,7.50
2017,11,13,00,28,7.50
2017,11,13,00,29,7.50
2017,11,13,00,30,7.50
2017,11,13,00,31,7.50
2017,11,13,00,32,7.50
2017,11,13,00,33,7.40
2017,11,13,00,34,7.40
2017,11,13,00,35,7.50
2017,11,13,00,36,7.50
2017,11,13,00,37,7.40
2017,11,13,00,38,7.40
2017,11,13,00,39,7.50
2017,11,13,00,40,7.40
2017,11,13,00,41,7.40
2017,11,13,00,42,7.40
2017,11,13,00,43,7.50
2017,11,13,00,44,7.50
2017,11,13,00,45,7.40
2017,11,13,00,46,7.40
2017,11,13,00,47,7.40
2017,11,13,00,48,7.40
2017,11,13,00,49,7.40
2017,11,13,00,50,7.40
2017,11,13,00,51,7.40
2017,11,13,00,52,7.40
2017,11,13,00,53,7.40
2017,11,13,00,54,7.40
2017,11,13,00,55,7.40
2017,11,13,00,56,7.40
2017,11,13,00,57,7.40
2017,11,13,00,58,7.40
2017,11,13,00,59,7.40
2017,11,13,01,00,7.40
2017,11,13,01,01,7.40
2017,11,13,01,02,7.40
2017,11,13,01,03,7.40
2017,11,13,01,04,7.40
2017,11,13,01,05,7.40
2017,11,13,01,06,7.40
2017,11,13,01,07,7.40
2017,11,13,01,08,7.40
2017,11,13,01,09,7.40
2017,11,13,01,10,7.40
2017,11,13,01,11,7.40
2017,11,13,01,12,7.40
2017,11,13,01,13,7.40
2017,11,13,01,14,7.40
2017,11,13,01,15,7.40
2017,11,13,01,16,7.40
2017,11,13,01,17,7.40
2017,11,13,01,18,7.40
2017,11,13,01,19,7.40
2017,11,13,01,20,7.40
2017,11,13,01,21,7.40
2017,11,13,01,22,7.40
2017,11,13,01,23,7.40
2017,11,13,01,24,7.40
2017,11,13,01,25,7.40
2017,11,13,01,26,7.40
2017,11,13,01,27,7.40
2017,11,13,01,28,7.40
2017,11,13,01,29,7.40
2017,11,13,01,30,7.40
2017,11,13,01,31,7.40
2017,11,13,01,32,7.40
2017,11,13,01,33,7.40
2017,11,13,01,34,7.40
2017,11,13,01,35,7.40
2017,11,13,01,36,7.40
2017,11,13,01,37,7.40
2017,11,13,01,38,7.40
2017,11,13,01,39,7.40
2017,11,13,01,40,7.40
2017,11,13,01,41,7.50
2017,11,13,01,42,7.40
2017,11,13,01,43,7.40
2017,11,13,01,44,7.40
2017,11,13,01,45,7.50
2017,11,13,01,46,7.50
2017,11,13,01,47,7.50
2017,11,13,01,48,7.40
2017,11,13,01,49,7.40
2017,11,13,01,50,7.40
2017,11,13,01,51,7.40
2017,11,13,01,52,7.40
2017,11,13,01,53,7.40
2017,11,13,01,54,7.50
2017,11,13,01,55,7.50
2017,11,13,01,56,7.50
2017,11,13,01,57,7.40
2017,11,13,01,58,7.40
2017,11,13,01,59,7.40
2017,11,13,02,00,7.40
2017,11,13,02,01,7.40
2017,11,13,02,02,7.40
2017,11,13,02,03,7.40
2017,11,13,02,04,7.40
2017,11,13,02,05,7.40
2017,11,13,02,06,7.40
2017,11,13,02,07,7.40
2017,11,13,02,08,7.40
2017,11,13,02,09,7.40
2017,11,13,02,10,7.40
2017,11,13,02,11,7.40
2017,11,13,02,12,7.40
2017,11,13,02,13,7.40
2017,11,13,02,14,7.40
2017,11,13,02,15,7.40
2017,11,13,02,16,7.40
2017,11,13,02,17,7.40
2017,11,13,02,18,7.40
2017,11,13,02,19,7.40
2017,11,13,02,20,7.40
2017,11,13,02,21,7.40
2017,11,13,02,22,7.40
2017,11,13,02,23,7.40
2017,11,13,02,24,7.40
2017,11,13,02,25,7.40
2017,11,13,02,26,7.40
2017,11,13,02,27,7.40
2017,11,13,02,28,7.40
2017,11,13,02,29,7.40
2017,11,13,02,30,7.40
2017,11,13,02,31,7.40
2017,11,13,02,32,7.40
2017,11,13,02,33,7.40
2017,11,13,02,34,7.40
2017,11,13,02,35,7.40
2017,11,13,02,36,7.40
2017,11,13,02,37,7.40
2017,11,13,02,38,7.40
2017,11,13,02,39,7.40
2017,11,13,02,40,7.40
2017,11,13,02,41,7.40
2017,11,13,02,42,7.40
2017,11,13,02,43,7.40
2017,11,13,02,44,7.40
2017,11,13,02,45,7.30
2017,11,13,02,46,7.30
2017,11,13,02,47,7.30
2017,11,13,02,48,7.30
2017,11,13,02,49,7.30
2017,11,13,02,50,7.30
2017,11,13,02,51,7.30
2017,11,13,02,52,7.30
2017,11,13,02,53,7.30
2017,11,13,02,54,7.30
2017,11,13,02,55,7.20
2017,11,13,02,56,7.20
2017,11,13,02,57,7.20
2017,11,13,02,58,7.20
2017,11,13,02,59,7.20
2017,11,13,03,00,7.20
2017,11,13,03,01,7.20
2017,11,13,03,02,7.20
2017,11,13,03,03,7.20
2017,11,13,03,04,7.20
2017,11,13,03,05,7.20
2017,11,13,03,06,7.20
2017,11,13,03,07,7.10
2017,11,13,03,08,7.10
2017,11,13,03,09,7.10
2017,11,13,03,10,7.10
2017,11,13,03,11,7.10
2017,11,13,03,12,7.10
2017,11,13,03,13,7.10
2017,11,13,03,14,7.10
2017,11,13,03,15,7.10
2017,11,13,03,16,7.00
2017,11,13,03,17,7.00
2017,11,13,03,18,7.00
2017,11,13,03,19,7.00
2017,11,13,03,20,7.00
2017,11,13,03,21,7.00
2017,11,13,03,22,6.90
2017,11,13,03,23,6.90
2017,11,13,03,24,6.90
2017,11,13,03,25,6.90
2017,11,13,03,26,6.90
2017,11,13,03,27,6.90
2017,11,13,03,28,6.90
2017,11,13,03,29,6.90
2017,11,13,03,30,6.80
2017,11,13,03,31,6.80
2017,11,13,03,32,6.80
2017,11,13,03,33,6.80
2017,11,13,03,34,6.80
2017,11,13,03,35,6.80
2017,11,13,03,36,6.80
2017,11,13,03,37,6.80
2017,11,13,03,38,6.80
2017,11,13,03,39,6.80
2017,11,13,03,40,6.80
2017,11,13,03,41,6.80
2017,11,13,03,42,6.80
2017,11,13,03,43,6.80
2017,11,13,03,44,6.80
2017,11,13,03,45,6.80
2017,11,13,03,46,6.80
2017,11,13,03,47,6.80
2017,11,13,03,48,6.80
2017,11,13,03,49,6.80
2017,11,13,03,50,6.80
2017,11,13,03,51,6.80
2017,11,13,03,52,6.80
2017,11,13,03,53,6.80
2017,11,13,03,54,6.80
2017,11,13,03,55,6.80
2017,11,13,03,56,6.80
2017,11,13,03,57,6.80
2017,11,13,03,58,6.90
2017,11,13,03,59,6.90
2017,11,13,04,00,6.90
2017,11,13,04,01,6.90
2017,11,13,04,02,6.90
2017,11,13,04,03,6.90
2017,11,13,04,04,6.90
2017,11,13,04,05,6.90
2017,11,13,04,06,6.90
2017,11,13,04,07,6.90
2017,11,13,04,08,6.90
2017,11,13,04,09,6.90
2017,11,13,04,10,6.90
2017,11,13,04,11,6.90
2017,11,13,04,12,6.90
2017,11,13,04,13,6.90
2017,11,13,04,14,6.90
2017,11,13,04,15,6.90
2017,11,13,04,16,6.90
2017,11,13,04,17,6.90
2017,11,13,04,18,6.90
2017,11,13,04,19,6.90
2017,11,13,04,20,6.90
2017,11,13,04,21,6.90
2017,11,13,04,22,6.90
2017,11,13,04,23,6.90
2017,11,13,04,24,6.90
2017,11,13,04,25,6.90
2017,11,13,04,26,6.90
2017,11,13,04,27,6.90
2017,11,13,04,28,6.90
2017,11,13,04,29,6.90
2017,11,13,04,30,6.90
2017,11,13,04,31,6.80
2017,11,13,04,32,6.80
2017,11,13,04,33,6.80
2017,11,13,04,34,6.80
2017,11,13,04,35,6.80
2017,11,13,04,36,6.80
2017,11,13,04,37,6.80
2017,11,13,04,38,6.80
2017,11,13,04,39,6.80
2017,11,13,04,40,6.90
2017,11,13,04,41,6.90
2017,11,13,04,42,6.90
2017,11,13,04,43,6.90
2017,11,13,04,44,6.80
2017,11,13,04,45,6.80
2017,11,13,04,46,6.80
2017,11,13,04,47,6.80
2017,11,13,04,48,6.80
2017,11,13,04,49,6.90
2017,11,13,04,50,6.90
2017,11,13,04,51,6.90
2017,11,13,04,52,6.90
2017,11,13,04,53,6.90
2017,11,13,04,54,6.90
2017,11,13,04,55,6.90
2017,11,13,04,56,6.90
2017,11,13,04,57,6.90
2017,11,13,04,58,6.90
2017,11,13,04,59,6.90
2017,11,13,05,00,6.90
2017,11,13,05,01,6.90
2017,11,13,05,02,6.90
2017,11,13,05,03,6.90
2017,11,13,05,04,7.00
2017,11,13,05,05,7.00
2017,11,13,05,06,7.00
2017,11,13,05,07,7.00
2017,11,13,05,08,7.00
2017,11,13,05,09,7.00
2017,11,13,05,10,7.00
2017,11,13,05,11,7.00
2017,11,13,05,12,7.10
2017,11,13,05,13,7.10
2017,11,13,05,14,7.10
2017,11,13,05,15,7.10
2017,11,13,05,16,7.10
2017,11,13,05,17,7.10
2017,11,13,05,18,7.10
2017,11,13,05,19,7.10
2017,11,13,05,20,7.10
2017,11,13,05,21,7.20
2017,11,13,05,22,7.20
2017,11,13,05,23,7.20
2017,11,13,05,24,7.20
2017,11,13,05,25,7.20
2017,11,13,05,26,7.20
2017,11,13,05,27,7.20
2017,11,13,05,28,7.20
2017,11,13,05,29,7.20
2017,11,13,05,30,7.20
2017,11,13,05,31,7.20
2017,11,13,05,32,7.20
2017,11,13,05,33,7.20
2017,11,13,05,34,7.20
2017,11,13,05,35,7.30
2017,11,13,05,36,7.30
2017,11,13,05,37,7.30
2017,11,13,05,38,7.30
2017,11,13,05,39,7.30
2017,11,13,05,40,7.30
2017,11,13,05,41,7.30
2017,11,13,05,42,7.30
2017,11,13,05,43,7.30
2017,11,13,05,44,7.30
2017,11,13,05,45,7.30
2017,11,13,05,46,7.30
2017,11,13,05,47,7.30
2017,11,13,05,48,7.30
2017,11,13,05,49,7.30
2017,11,13,05,50,7.30
2017,11,13,05,51,7.30
2017,11,13,05,52,7.30
2017,11,13,05,53,7.30
2017,11,13,05,54,7.30
2017,11,13,05,55,7.30
2017,11,13,05,56,7.30
2017,11,13,05,57,7.30
2017,11,13,05,58,7.30
2017,11,13,05,59,7.30
2017,11,13,06,00,7.30
2017,11,13,06,01,7.30
2017,11,13,06,02,7.30
2017,11,13,06,03,7.30
2017,11,13,06,04,7.30
2017,11,13,06,05,7.30
2017,11,13,06,06,7.30
2017,11,13,06,07,7.30
2017,11,13,06,08,7.30
2017,11,13,06,09,7.30
2017,11,13,06,10,7.30
2017,11,13,06,11,7.30
2017,11,13,06,12,7.30
2017,11,13,06,13,7.30
2017,11,13,06,14,7.30
2017,11,13,06,15,7.30
2017,11,13,06,16,7.30
2017,11,13,06,17,7.30
2017,11,13,06,18,7.30
2017,11,13,06,19,7.30
2017,11,13,06,20,7.30
2017,11,13,06,21,7.30
2017,11,13,06,22,7.30
2017,11,13,06,23,7.30
2017,11,13,06,24,7.20
2017,11,13,06,25,7.20
2017,11,13,06,26,7.20
2017,11,13,06,27,7.20
2017,11,13,06,28,7.20
2017,11,13,06,29,7.30
2017,11,13,06,30,7.30
2017,11,13,06,31,7.30
2017,11,13,06,32,7.30
2017,11,13,06,33,7.30
2017,11,13,06,34,7.30
2017,11,13,06,35,7.30
2017,11,13,06,36,7.30
2017,11,13,06,37,7.30
2017,11,13,06,38,7.30
2017,11,13,06,39,7.30
2017,11,13,06,40,7.20
2017,11,13,06,41,7.20
2017,11,13,06,42,7.20
2017,11,13,06,43,7.20
2017,11,13,06,44,7.20
2017,11,13,06,45,7.20
2017,11,13,06,46,7.10
2017,11,13,06,47,7.10
2017,11,13,06,48,7.10
2017,11,13,06,49,7.10
2017,11,13,06,50,7.10
2017,11,13,06,51,7.10
2017,11,13,06,52,7.10
2017,11,13,06,53,7.10
2017,11,13,06,54,7.10
2017,11,13,06,55,7.10
2017,11,13,06,56,7.10
2017,11,13,06,57,7.10
2017,11,13,06,58,7.10
2017,11,13,06,59,7.10
2017,11,13,07,00,7.10
2017,11,13,07,01,7.10
2017,11,13,07,02,7.10
2017,11,13,07,03,7.10
2017,11,13,07,04,7.10
2017,11,13,07,05,7.10
2017,11,13,07,06,7.10
2017,11,13,07,07,7.10
2017,11,13,07,08,7.10
2017,11,13,07,09,7.10
2017,11,13,07,10,7.10
2017,11,13,07,11,7.20
2017,11,13,07,12,7.20
2017,11,13,07,13,7.20
2017,11,13,07,14,7.20
2017,11,13,07,15,7.20
2017,11,13,07,16,7.20
2017,11,13,07,17,7.20
2017,11,13,07,18,7.20
2017,11,13,07,19,7.20
2017,11,13,07,20,7.20
2017,11,13,07,21,7.20
2017,11,13,07,22,7.20
2017,11,13,07,23,7.20
2017,11,13,07,24,7.10
2017,11,13,07,25,7.10
2017,11,13,07,26,7.10
2017,11,13,07,27,7.10
2017,11,13,07,28,7.10
2017,11,13,07,29,7.10
2017,11,13,07,30,7.10
2017,11,13,07,31,7.10
2017,11,13,07,32,7.10
2017,11,13,07,33,7.10
2017,11,13,07,34,7.20
2017,11,13,07,35,7.20
2017,11,13,07,36,7.20
2017,11,13,07,37,7.20
2017,11,13,07,38,7.20
2017,11,13,07,39,7.20
2017,11,13,07,40,7.20
2017,11,13,07,41,7.20
2017,11,13,07,42,7.20
2017,11,13,07,43,7.20
2017,11,13,07,44,7.20
2017,11,13,07,45,7.20
2017,11,13,07,46,7.20
2017,11,13,07,47,7.20
2017,11,13,07,48,7.20
2017,11,13,07,49,7.20
2017,11,13,07,50,7.20
2017,11,13,07,51,7.20
2017,11,13,07,52,7.20
2017,11,13,07,53,7.20
2017,11,13,07,54,7.20
2017,11,13,07,55,7.20
2017,11,13,07,56,7.20
2017,11,13,07,57,7.20
2017,11,13,07,58,7.20
2017,11,13,07,59,7.20
2017,11,13,08,00,7.20
2017,11,13,08,01,7.20
2017,11,13,08,02,7.20
2017,11,13,08,03,7.20
2017,11,13,08,04,7.20
2017,11,13,08,05,7.20
2017,11,13,08,06,7.30
2017,11,13,08,07,7.30
2017,11,13,08,08,7.30
2017,11,13,08,09,7.30
2017,11,13,08,10,7.30
2017,11,13,08,11,7.30
2017,11,13,08,12,7.30
2017,11,13,08,13,7.30
2017,11,13,08,14,7.30
2017,11,13,08,15,7.30
2017,11,13,08,16,7.30
2017,11,13,08,17,7.30
2017,11,13,08,18,7.30
2017,11,13,08,19,7.30
2017,11,13,08,20,7.40
2017,11,13,08,21,7.40
2017,11,13,08,22,7.40
2017,11,13,08,23,7.40
2017,11,13,08,24,7.40
2017,11,13,08,25,7.40
2017,11,13,08,26,7.40
2017,11,13,08,27,7.40
2017,11,13,08,28,7.40
2017,11,13,08,29,7.40
2017,11,13,08,30,7.40
2017,11,13,08,31,7.40
2017,11,13,08,32,7.40
2017,11,13,08,33,7.40
2017,11,13,08,34,7.40
2017,11,13,08,35,7.40
2017,11,13,08,36,7.40
2017,11,13,08,37,7.40
2017,11,13,08,38,7.40
2017,11,13,08,39,7.40
2017,11,13,08,40,7.40
2017,11,13,08,41,7.40
2017,11,13,08,42,7.50
2017,11,13,08,43,7.50
2017,11,13,08,44,7.50
2017,11,13,08,45,7.60
2017,11,13,08,46,7.60
2017,11,13,08,47,7.60
2017,11,13,08,48,7.60
2017,11,13,08,49,7.70
2017,11,13,08,50,7.70
2017,11,13,08,51,7.80
2017,11,13,08,52,7.80
2017,11,13,08,53,7.80
2017,11,13,08,54,7.80
2017,11,13,08,55,7.80
2017,11,13,08,56,7.80
2017,11,13,08,57,7.80
2017,11,13,08,58,7.80
2017,11,13,08,59,7.80
2017,11,13,09,00,7.80
2017,11,13,09,01,7.80
2017,11,13,09,02,7.80
2017,11,13,09,03,7.80
2017,11,13,09,04,7.80
2017,11,13,09,05,7.70
2017,11,13,09,06,7.80
2017,11,13,09,07,7.80
2017,11,13,09,08,7.80
2017,11,13,09,09,7.80
2017,11,13,09,10,7.80
2017,11,13,09,11,7.80
2017,11,13,09,12,7.80
2017,11,13,09,13,7.80
2017,11,13,09,14,7.80
2017,11,13,09,15,7.80
2017,11,13,09,16,7.90
2017,11,13,09,17,7.90
2017,11,13,09,18,7.90
2017,11,13,09,19,8.00
2017,11,13,09,20,8.00
2017,11,13,09,21,8.00
2017,11,13,09,22,8.00
2017,11,13,09,23,8.00
2017,11,13,09,24,8.00
2017,11,13,09,25,7.90
2017,11,13,09,26,7.90
2017,11,13,09,27,8.00
2017,11,13,09,28,8.00
2017,11,13,09,29,8.00
2017,11,13,09,30,8.10
2017,11,13,09,31,8.10
2017,11,13,09,32,8.10
2017,11,13,09,33,8.10
2017,11,13,09,34,8.00
2017,11,13,09,35,8.00
2017,11,13,09,36,7.90
2017,11,13,09,37,7.90
2017,11,13,09,38,7.80
2017,11,13,09,39,7.80
2017,11,13,09,40,7.80
2017,11,13,09,41,7.70
2017,11,13,09,42,7.70
2017,11,13,09,43,7.70
2017,11,13,09,44,7.60
2017,11,13,09,45,7.60
2017,11,13,09,46,7.60
2017,11,13,09,47,7.60
2017,11,13,09,48,7.50
2017,11,13,09,49,7.40
2017,11,13,09,50,7.40
2017,11,13,09,51,7.40
2017,11,13,09,52,7.40
2017,11,13,09,53,7.40
2017,11,13,09,54,7.40
2017,11,13,09,55,7.40
2017,11,13,09,56,7.40
2017,11,13,09,57,7.40
2017,11,13,09,58,7.40
2017,11,13,09,59,7.40
2017,11,13,10,00,7.40
2017,11,13,10,01,7.50
2017,11,13,10,02,7.50
2017,11,13,10,03,7.50
2017,11,13,10,04,7.50
2017,11,13,10,05,7.50
2017,11,13,10,06,7.60
2017,11,13,10,07,7.60
2017,11,13,10,08,7.60
2017,11,13,10,09,7.60
2017,11,13,10,10,7.60
2017,11,13,10,11,7.60
2017,11,13,10,12,7.60
2017,11,13,10,13,7.60
2017,11,13,10,14,7.50
2017,11,13,10,15,7.50
2017,11,13,10,16,7.60
2017,11,13,10,17,7.60
2017,11,13,10,18,7.60
2017,11,13,10,19,7.50
2017,11,13,10,20,7.50
2017,11,13,10,21,7.50
2017,11,13,10,22,7.50
2017,11,13,10,23,7.50
2017,11,13,10,24,7.50
2017,11,13,10,25,7.50
2017,11,13,10,26,7.60
2017,11,13,10,27,7.60
2017,11,13,10,28,7.60
2017,11,13,10,29,7.60
2017,11,13,10,30,7.60
2017,11,13,10,31,7.70
2017,11,13,10,32,7.70
2017,11,13,10,33,7.70
2017,11,13,10,34,7.70
2017,11,13,10,35,7.70
2017,11,13,10,36,7.70
2017,11,13,10,37,7.70
2017,11,13,10,38,7.70
2017,11,13,10,39,7.80
2017,11,13,10,40,7.80
2017,11,13,10,41,7.80
2017,11,13,10,42,7.80
2017,11,13,10,43,7.80
2017,11,13,10,44,7.80
2017,11,13,10,45,7.80
2017,11,13,10,46,7.80
2017,11,13,10,47,7.80
2017,11,13,10,48,7.80
2017,11,13,10,49,7.80
2017,11,13,10,50,7.80
2017,11,13,10,51,7.80
2017,11,13,10,52,7.80
2017,11,13,10,53,7.90
2017,11,13,10,54,7.90
2017,11,13,10,55,7.90
2017,11,13,10,56,7.90
2017,11,13,10,57,7.90
2017,11,13,10,58,7.90
2017,11,13,10,59,7.90
2017,11,13,11,00,8.00
2017,11,13,11,01,8.00
2017,11,13,11,02,8.00
2017,11,13,11,03,8.00
2017,11,13,11,04,8.00
2017,11,13,11,05,8.10
2017,11,13,11,06,8.10
2017,11,13,11,07,8.10
2017,11,13,11,08,8.00
2017,11,13,11,09,8.00
2017,11,13,11,10,8.00
2017,11,13,11,11,8.00
2017,11,13,11,12,8.10
2017,11,13,11,13,8.10
2017,11,13,11,14,8.10
2017,11,13,11,15,8.10
2017,11,13,11,16,8.10
2017,11,13,11,17,8.10
2017,11,13,11,18,8.00
2017,11,13,11,19,8.00
2017,11,13,11,20,7.90
2017,11,13,11,21,7.90
2017,11,13,11,22,7.90
2017,11,13,11,23,7.90
2017,11,13,11,24,7.90
2017,11,13,11,25,7.90
2017,11,13,11,26,7.80
2017,11,13,11,27,7.80
2017,11,13,11,28,7.80
2017,11,13,11,29,7.80
2017,11,13,11,30,7.80
2017,11,13,11,31,7.80
2017,11,13,11,32,7.80
2017,11,13,11,33,7.80
2017,11,13,11,34,7.80
2017,11,13,11,35,7.70
2017,11,13,11,36,7.70
2017,11,13,11,37,7.70
2017,11,13,11,38,7.70
2017,11,13,11,39,7.60
2017,11,13,11,40,7.60
2017,11,13,11,41,7.50
2017,11,13,11,42,7.50
2017,11,13,11,43,7.40
2017,11,13,11,44,7.40
2017,11,13,11,45,7.30
2017,11,13,11,46,7.30
2017,11,13,11,47,7.20
2017,11,13,11,48,7.20
2017,11,13,11,49,7.10
2017,11,13,11,50,7.00
2017,11,13,11,51,7.00
2017,11,13,11,52,6.90
2017,11,13,11,53,6.80
2017,11,13,11,54,6.80
2017,11,13,11,55,6.70
2017,11,13,11,56,6.70
2017,11,13,11,57,6.60
2017,11,13,11,58,6.60
2017,11,13,11,59,6.50
2017,11,13,12,00,6.50
2017,11,13,12,01,6.40
2017,11,13,12,02,6.40
2017,11,13,12,03,6.40
2017,11,13,12,04,6.40
2017,11,13,12,05,6.30
2017,11,13,12,06,6.30
2017,11,13,12,07,6.30
2017,11,13,12,08,6.30
2017,11,13,12,09,6.20
2017,11,13,12,10,6.20
2017,11,13,12,11,6.20
2017,11,13,12,12,6.20
2017,11,13,12,13,6.20
2017,11,13,12,14,6.10
2017,11,13,12,15,6.10
2017,11,13,12,16,6.10
2017,11,13,12,17,6.10
2017,11,13,12,18,6.10
2017,11,13,12,19,6.10
2017,11,13,12,20,6.10
2017,11,13,12,21,6.10
2017,11,13,12,22,6.10
2017,11,13,12,23,6.10
2017,11,13,12,24,6.10
2017,11,13,12,25,6.10
2017,11,13,12,26,6.10
2017,11,13,12,27,6.10
2017,11,13,12,28,6.10
2017,11,13,12,29,6.10
2017,11,13,12,30,6.10
2017,11,13,12,31,6.00
2017,11,13,12,32,6.00
2017,11,13,12,33,6.00
2017,11,13,12,34,6.00
2017,11,13,12,35,6.00
2017,11,13,12,36,6.00
2017,11,13,12,37,6.00
2017,11,13,12,38,6.00
2017,11,13,12,39,6.00
2017,11,13,12,40,6.00
2017,11,13,12,41,6.00
2017,11,13,12,42,5.90
2017,11,13,12,43,5.90
2017,11,13,12,44,5.90
2017,11,13,12,45,5.90
2017,11,13,12,46,5.90
2017,11,13,12,47,5.90
2017,11,13,12,48,5.90
2017,11,13,12,49,5.90
2017,11,13,12,50,5.80
2017,11,13,12,51,5.80
2017,11,13,12,52,5.80
2017,11,13,12,53,5.80
2017,11,13,12,54,5.80
2017,11,13,12,55,5.80
2017,11,13,12,56,5.80
2017,11,13,12,57,5.80
2017,11,13,12,58,5.80
2017,11,13,12,59,5.80
2017,11,13,13,00,5.80
2017,11,13,13,01,5.80
2017,11,13,13,02,5.80
2017,11,13,13,03,5.80
2017,11,13,13,04,5.80
2017,11,13,13,05,5.80
2017,11,13,13,06,5.80
2017,11,13,13,07,5.80
2017,11,13,13,08,5.80
2017,11,13,13,09,5.80
2017,11,13,13,10,5.80
2017,11,13,13,11,5.80
2017,11,13,13,12,5.80
2017,11,13,13,13,5.80
2017,11,13,13,14,5.80
2017,11,13,13,15,5.80
2017,11,13,13,16,5.80
2017,11,13,13,17,5.80
2017,11,13,13,18,5.80
2017,11,13,13,19,5.80
2017,11,13,13,20,5.80
2017,11,13,13,21,5.80
2017,11,13,13,22,5.80
2017,11,13,13,23,5.80
2017,11,13,13,24,5.80
2017,11,13,13,25,5.80
2017,11,13,13,26,5.80
2017,11,13,13,27,5.80
2017,11,13,13,28,5.80
2017,11,13,13,29,5.80
2017,11,13,13,30,5.80
2017,11,13,13,31,5.80
2017,11,13,13,32,5.80
2017,11,13,13,33,5.80
2017,11,13,13,34,5.70
2017,11,13,13,35,5.70
2017,11,13,13,36,5.70
2017,11,13,13,37,5.70
2017,11,13,13,38,5.70
2017,11,13,13,39,5.70
2017,11,13,13,40,5.60
2017,11,13,13,41,5.60
2017,11,13,13,42,5.60
2017,11,13,13,43,5.60
2017,11,13,13,44,5.60
2017,11,13,13,45,5.50
2017,11,13,13,46,5.50
2017,11,13,13,47,5.50
2017,11,13,13,48,5.40
2017,11,13,13,49,5.40
2017,11,13,13,50,5.40
2017,11,13,13,51,5.40
2017,11,13,13,52,5.30
2017,11,13,13,53,5.30
2017,11,13,13,54,5.30
2017,11,13,13,55,5.30
2017,11,13,13,56,5.30
2017,11,13,13,57,5.30
2017,11,13,13,58,5.20
2017,11,13,13,59,5.20
2017,11,13,14,00,5.20
2017,11,13,14,01,5.10
2017,11,13,14,02,5.10
2017,11,13,14,03,5.10
2017,11,13,14,04,5.00
2017,11,13,14,05,4.90
2017,11,13,14,06,4.90
2017,11,13,14,07,4.90
2017,11,13,14,08,4.90
2017,11,13,14,09,4.80
2017,11,13,14,10,4.80
2017,11,13,14,11,4.80
2017,11,13,14,12,4.80
2017,11,13,14,13,4.80
2017,11,13,14,14,4.70
2017,11,13,14,15,4.70
2017,11,13,14,16,4.70
2017,11,13,14,17,4.70
2017,11,13,14,18,4.70
2017,11,13,14,19,4.70
2017,11,13,14,20,4.70
2017,11,13,14,21,4.70
2017,11,13,14,22,4.70
2017,11,13,14,23,4.70
2017,11,13,14,24,4.70
2017,11,13,14,25,4.70
2017,11,13,14,26,4.70
2017,11,13,14,27,4.70
2017,11,13,14,28,4.70
2017,11,13,14,29,4.70
2017,11,13,14,30,4.70
2017,11,13,14,31,4.70
2017,11,13,14,32,4.70
2017,11,13,14,33,4.70
2017,11,13,14,34,4.70
2017,11,13,14,35,4.70
2017,11,13,14,36,4.70
2017,11,13,14,37,4.70
2017,11,13,14,38,4.70
2017,11,13,14,39,4.70
2017,11,13,14,40,4.70
2017,11,13,14,41,4.70
2017,11,13,14,42,4.70
2017,11,13,14,43,4.70
2017,11,13,14,44,4.70
2017,11,13,14,45,4.70
2017,11,13,14,46,4.70
2017,11,13,14,47,4.70
2017,11,13,14,48,4.70
2017,11,13,14,49,4.70
2017,11,13,14,50,4.70
2017,11,13,14,51,4.70
2017,11,13,14,52,4.70
2017,11,13,14,53,4.70
2017,11,13,14,54,4.70
2017,11,13,14,55,4.70
2017,11,13,14,56,4.70
2017,11,13,14,57,4.70
2017,11,13,14,58,4.70
2017,11,13,14,59,4.70
2017,11,13,15,00,4.70
2017,11,13,15,01,4.70
2017,11,13,15,02,4.60
2017,11,13,15,03,4.60
2017,11,13,15,04,4.60
2017,11,13,15,05,4.60
2017,11,13,15,06,4.50
2017,11,13,15,07,4.50
2017,11,13,15,08,4.50
2017,11,13,15,09,4.50
2017,11,13,15,10,4.50
2017,11,13,15,11,4.50
2017,11,13,15,12,4.50
2017,11,13,15,13,4.50
2017,11,13,15,14,4.50
2017,11,13,15,15,4.50
2017,11,13,15,16,4.50
2017,11,13,15,17,4.50
2017,11,13,15,50,4.80
2017,11,13,15,51,4.80
2017,11,13,15,52,4.80
2017,11,13,15,53,4.80
2017,11,13,15,54,4.80
2017,11,13,15,55,4.80
2017,11,13,15,56,4.80
2017,11,13,15,57,4.80
2017,11,13,15,58,4.80
2017,11,13,15,59,4.80
2017,11,13,16,00,4.80
2017,11,13,16,01,4.80
2017,11,13,16,02,4.80
2017,11,13,16,03,4.80
2017,11,13,16,04,4.80
2017,11,13,16,05,4.80
2017,11,13,16,06,4.80
2017,11,13,16,07,4.80
2017,11,13,16,08,4.80
2017,11,13,16,09,4.80
2017,11,13,16,10,4.80
2017,11,13,16,11,4.80
2017,11,13,16,12,4.80
2017,11,13,16,13,4.80
2017,11,13,16,14,4.80
2017,11,13,16,15,4.80
2017,11,13,16,16,4.80
2017,11,13,16,17,4.80
2017,11,13,16,18,4.80
2017,11,13,16,19,4.80
2017,11,13,16,20,4.70
2017,11,13,16,21,4.70
2017,11,13,16,22,4.70
2017,11,13,16,23,4.60
2017,11,13,16,24,4.60
2017,11,13,16,25,4.50
2017,11,13,16,26,4.50
2017,11,13,16,27,4.40
2017,11,13,16,28,4.40
2017,11,13,16,29,4.30
2017,11,13,16,30,4.30
2017,11,13,16,31,4.20
2017,11,13,16,32,4.10
2017,11,13,16,33,4.10
2017,11,13,16,34,4.00
2017,11,13,16,35,4.00
2017,11,13,16,36,3.90
2017,11,13,16,37,3.90
2017,11,13,16,38,3.90
2017,11,13,16,39,3.80
2017,11,13,16,40,3.80
2017,11,13,16,41,3.80
2017,11,13,16,42,3.80
2017,11,13,16,43,3.70
2017,11,13,16,44,3.70
2017,11,13,16,45,3.70
2017,11,13,16,46,3.70
2017,11,13,16,47,3.70
2017,11,13,16,48,3.60
2017,11,13,16,49,3.60
2017,11,13,16,50,3.60
2017,11,13,16,51,3.60
2017,11,13,16,52,3.60
2017,11,13,16,53,3.60
2017,11,13,16,54,3.60
2017,11,13,16,55,3.60
2017,11,13,16,56,3.50
2017,11,13,16,57,3.60
2017,11,13,16,58,3.50
2017,11,13,16,59,3.50
2017,11,13,17,00,3.50
2017,11,13,17,01,3.50
2017,11,13,17,02,3.50
2017,11,13,17,03,3.50
2017,11,13,17,04,3.50
2017,11,13,17,05,3.50
2017,11,13,17,06,3.50
2017,11,13,17,07,3.50
2017,11,13,17,08,3.50
2017,11,13,17,09,3.50
2017,11,13,17,10,3.50
2017,11,13,17,11,3.50
2017,11,13,17,12,3.50
2017,11,13,17,13,3.50
2017,11,13,17,14,3.50
2017,11,13,17,15,3.50
2017,11,13,17,16,3.50
2017,11,13,17,17,3.50
2017,11,13,17,18,3.50
2017,11,13,17,19,3.50
2017,11,13,17,20,3.50
2017,11,13,17,21,3.50
2017,11,13,17,22,3.50
2017,11,13,17,23,3.50
2017,11,13,17,24,3.50
2017,11,13,17,25,3.50
2017,11,13,17,26,3.50
2017,11,13,17,27,3.50
2017,11,13,17,28,3.60
2017,11,13,17,29,3.50
2017,11,13,17,30,3.50
2017,11,13,17,31,3.60
2017,11,13,17,32,3.60
2017,11,13,17,33,3.60
2017,11,13,17,34,3.60
2017,11,13,17,35,3.60
2017,11,13,17,36,3.60
2017,11,13,17,37,3.60
2017,11,13,17,38,3.60
2017,11,13,17,39,3.60
2017,11,13,17,40,3.60
2017,11,13,17,41,3.60
2017,11,13,17,42,3.60
2017,11,13,17,43,3.60
2017,11,13,17,44,3.60
2017,11,13,17,45,3.60
2017,11,13,17,46,3.60
2017,11,13,17,47,3.60
2017,11,13,17,48,3.60
2017,11,13,17,49,3.60
2017,11,13,17,50,3.60
2017,11,13,17,51,3.60
2017,11,13,17,52,3.50
2017,11,13,17,53,3.50
2017,11,13,17,54,3.50
2017,11,13,17,55,3.50
2017,11,13,17,56,3.50
2017,11,13,17,57,3.50
2017,11,13,17,58,3.60
2017,11,13,17,59,3.60
2017,11,13,18,00,3.60
2017,11,13,18,01,3.60
2017,11,13,18,02,3.60
2017,11,13,18,03,3.60
2017,11,13,18,04,3.60
2017,11,13,18,05,3.60
2017,11,13,18,06,3.60
2017,11,13,18,07,3.60
2017,11,13,18,08,3.70
2017,11,13,18,09,3.70
2017,11,13,18,10,3.70
2017,11,13,18,11,3.70
2017,11,13,18,12,3.80
2017,11,13,18,13,3.80
2017,11,13,18,14,3.80
2017,11,13,18,15,3.80
2017,11,13,18,16,3.90
2017,11,13,18,17,3.90
2017,11,13,18,18,3.90
2017,11,13,18,19,3.90
2017,11,13,18,20,3.90
2017,11,13,18,21,3.80
2017,11,13,18,22,3.80
2017,11,13,18,23,3.80
2017,11,13,18,24,3.80
2017,11,13,18,25,3.80
2017,11,13,18,26,3.80
2017,11,13,18,27,3.80
2017,11,13,18,28,3.80
2017,11,13,18,29,3.80
2017,11,13,18,30,3.80
2017,11,13,18,31,3.80
2017,11,13,18,32,3.70
2017,11,13,18,33,3.70
2017,11,13,18,34,3.70
2017,11,13,18,35,3.70
2017,11,13,18,36,3.70
2017,11,13,18,37,3.70
2017,11,13,18,38,3.60